CSA544 EDDH-ESGG

Flight info

Callsign CSA544
Flight time 0h 52m
Altitude 33000
Route LUGEG3G/33 LUGEG P605 MEGAR DCT ROKAM L997 RISMA
Aircraft T154/M-SDGRWY/S

Departure

Time 2026-04-25 20:14
Airport Hamburg Helmut Schmidt Airport (EDDH)

Arrival

Time 2026-04-25 21:07
Airport Göteborg Landvetter Airport (ESGG)
Time Latitude Longitude Altitude Speed Heading
2026-04-25 19:25 53.63010 10.00346 45 ft 0 kts 123°
2026-04-25 19:26 53.63010 10.00347 45 ft 0 kts 123°
2026-04-25 19:27 53.63010 10.00346 45 ft 0 kts 123°
2026-04-25 19:27 53.63010 10.00347 45 ft 0 kts 123°
2026-04-25 19:28 53.63010 10.00346 45 ft 0 kts 123°
2026-04-25 19:28 53.63010 10.00347 45 ft 0 kts 123°
2026-04-25 19:29 53.63010 10.00346 45 ft 0 kts 123°
2026-04-25 19:29 53.63010 10.00347 45 ft 0 kts 123°
2026-04-25 19:30 53.63010 10.00346 45 ft 0 kts 123°
2026-04-25 19:30 53.63010 10.00347 45 ft 0 kts 123°
2026-04-25 19:30 53.63010 10.00346 45 ft 0 kts 123°
2026-04-25 19:31 53.63010 10.00347 45 ft 0 kts 123°
2026-04-25 19:32 53.63010 10.00346 45 ft 0 kts 123°
2026-04-25 19:32 53.63010 10.00347 45 ft 0 kts 123°
2026-04-25 19:32 53.63010 10.00346 45 ft 0 kts 123°
2026-04-25 19:33 53.63010 10.00347 45 ft 0 kts 123°
2026-04-25 19:33 53.63010 10.00346 45 ft 0 kts 123°
2026-04-25 19:33 53.63010 10.00347 45 ft 0 kts 123°
2026-04-25 19:34 53.63010 10.00346 45 ft 0 kts 123°
2026-04-25 19:34 53.63010 10.00347 45 ft 0 kts 123°
2026-04-25 19:34 53.63010 10.00346 45 ft 0 kts 123°
2026-04-25 19:35 53.63010 10.00347 45 ft 0 kts 123°
2026-04-25 19:35 53.63010 10.00346 45 ft 0 kts 123°
2026-04-25 19:36 53.63010 10.00347 45 ft 0 kts 123°
2026-04-25 19:36 53.63010 10.00346 45 ft 0 kts 123°
2026-04-25 19:37 53.63010 10.00347 45 ft 0 kts 123°
2026-04-25 19:37 53.63010 10.00346 45 ft 0 kts 123°
2026-04-25 19:37 53.63010 10.00347 45 ft 0 kts 123°
2026-04-25 19:38 53.63010 10.00346 45 ft 0 kts 123°
2026-04-25 19:38 53.63010 10.00347 45 ft 0 kts 123°
2026-04-25 19:38 53.63010 10.00346 45 ft 0 kts 123°
2026-04-25 19:39 53.63010 10.00347 45 ft 0 kts 123°
2026-04-25 19:39 53.63010 10.00346 45 ft 0 kts 123°
2026-04-25 19:39 53.63010 10.00347 45 ft 0 kts 123°
2026-04-25 19:39 53.63010 10.00346 45 ft 0 kts 123°
2026-04-25 19:41 53.63010 10.00347 45 ft 0 kts 123°
2026-04-25 19:41 53.63010 10.00346 45 ft 0 kts 123°
2026-04-25 19:42 53.63010 10.00347 45 ft 0 kts 123°
2026-04-25 19:42 53.63010 10.00346 45 ft 0 kts 123°
2026-04-25 19:42 53.63010 10.00347 45 ft 0 kts 123°
2026-04-25 19:43 53.63010 10.00346 45 ft 0 kts 123°
2026-04-25 19:43 53.63010 10.00347 45 ft 0 kts 123°
2026-04-25 19:44 53.63010 10.00346 45 ft 0 kts 123°
2026-04-25 19:44 53.63010 10.00347 45 ft 0 kts 123°
2026-04-25 19:44 53.63010 10.00346 45 ft 0 kts 123°
2026-04-25 19:45 53.63010 10.00347 45 ft 0 kts 123°
2026-04-25 19:47 53.63010 10.00346 45 ft 0 kts 123°
2026-04-25 19:47 53.63010 10.00347 45 ft 0 kts 123°
2026-04-25 19:47 53.63010 10.00346 45 ft 0 kts 123°
2026-04-25 19:47 53.63010 10.00347 45 ft 0 kts 123°
2026-04-25 19:48 53.63010 10.00346 45 ft 0 kts 123°
2026-04-25 19:48 53.63010 10.00347 45 ft 0 kts 123°
2026-04-25 19:49 53.63010 10.00346 45 ft 0 kts 123°
2026-04-25 19:49 53.63010 10.00347 45 ft 0 kts 123°
2026-04-25 19:50 53.63010 10.00346 45 ft 0 kts 123°
2026-04-25 19:51 53.63010 10.00347 45 ft 0 kts 123°
2026-04-25 19:51 53.63010 10.00346 45 ft 0 kts 123°
2026-04-25 19:52 53.63010 10.00347 45 ft 0 kts 123°
2026-04-25 19:52 53.63010 10.00346 45 ft 0 kts 123°
2026-04-25 19:53 53.63018 10.00325 44 ft 2 kts 122°
2026-04-25 19:53 53.63027 10.00302 43 ft 2 kts 122°
2026-04-25 19:54 53.63036 10.00279 43 ft 2 kts 129°
2026-04-25 19:54 53.63046 10.00258 42 ft 2 kts 126°
2026-04-25 19:54 53.63055 10.00230 41 ft 2 kts 144°
2026-04-25 19:54 53.63065 10.00228 41 ft 2 kts 180°
2026-04-25 19:55 53.63086 10.00225 40 ft 1 kts 192°
2026-04-25 19:55 53.63094 10.00227 40 ft 1 kts 189°
2026-04-25 19:55 53.63100 10.00229 40 ft 0 kts 207°
2026-04-25 19:55 53.63104 10.00236 40 ft 1 kts 237°
2026-04-25 19:56 53.63109 10.00248 41 ft 1 kts 227°
2026-04-25 19:56 53.63113 10.00254 41 ft 0 kts 221°
2026-04-25 19:56 53.63117 10.00259 41 ft 0 kts 220°
2026-04-25 20:01 53.63096 10.00233 40 ft 5 kts 213°
2026-04-25 20:01 53.63056 10.00198 41 ft 6 kts 205°
2026-04-25 20:01 53.63014 10.00162 41 ft 7 kts 210°
2026-04-25 20:02 53.62965 10.00109 38 ft 4 kts 213°
2026-04-25 20:02 53.62951 10.00093 37 ft 4 kts 211°
2026-04-25 20:02 53.62925 10.00067 35 ft 1 kts 208°
2026-04-25 20:02 53.62909 10.00054 35 ft 3 kts 201°
2026-04-25 20:03 53.62886 10.00052 35 ft 3 kts 169°
2026-04-25 20:03 53.62864 10.00061 36 ft 3 kts 162°
2026-04-25 20:03 53.62833 10.00081 38 ft 5 kts 155°
2026-04-25 20:03 53.62792 10.00115 40 ft 7 kts 153°
2026-04-25 20:04 53.62744 10.00156 42 ft 8 kts 153°
2026-04-25 20:04 53.62694 10.00197 45 ft 5 kts 155°
2026-04-25 20:04 53.62651 10.00233 46 ft 6 kts 153°
2026-04-25 20:04 53.62609 10.00258 46 ft 5 kts 180°
2026-04-25 20:05 53.62582 10.00228 46 ft 5 kts 244°
2026-04-25 20:05 53.62577 10.00214 46 ft 0 kts 243°
2026-04-25 20:12 53.62576 10.00210 46 ft 1 kts 243°
2026-04-25 20:13 53.62550 10.00130 46 ft 9 kts 241°
2026-04-25 20:13 53.62543 10.00035 46 ft 7 kts 311°
2026-04-25 20:13 53.62567 10.00004 45 ft 0 kts 333°
2026-04-25 20:13 53.62608 9.99971 44 ft 34 kts 334°
2026-04-25 20:14 53.63099 9.99546 34 ft 119 kts 332°
2026-04-25 20:14 53.64000 9.98740 212 ft 167 kts 328°
2026-04-25 20:14 53.65084 9.97821 739 ft 189 kts 328°
2026-04-25 20:14 53.66376 9.96566 911 ft 241 kts 330°
2026-04-25 20:15 53.67981 9.95202 1383 ft 277 kts 334°
2026-04-25 20:15 53.69910 9.94469 2169 ft 300 kts 356°
2026-04-25 20:15 53.71812 9.94750 4112 ft 276 kts
2026-04-25 20:15 53.73483 9.95986 5185 ft 270 kts 27°
2026-04-25 20:16 53.74784 9.98386 5067 ft 289 kts 56°
2026-04-25 20:16 53.75473 10.01301 6032 ft 252 kts 59°
2026-04-25 20:16 53.76183 10.04114 6059 ft 270 kts 54°
2026-04-25 20:16 53.77020 10.06933 6834 ft 264 kts 53°
2026-04-25 20:17 53.77829 10.09702 7321 ft 271 kts 53°
2026-04-25 20:17 53.78655 10.12567 7911 ft 273 kts 53°
2026-04-25 20:17 53.79490 10.15479 8432 ft 277 kts 53°
2026-04-25 20:17 53.80335 10.18418 8940 ft 281 kts 53°
2026-04-25 20:18 53.81183 10.21373 9468 ft 285 kts 52°
2026-04-25 20:18 53.82044 10.24365 9958 ft 291 kts 52°
2026-04-25 20:18 53.82925 10.27439 10480 ft 295 kts 52°
2026-04-25 20:18 53.83826 10.30599 11048 ft 298 kts 52°
2026-04-25 20:19 53.84715 10.33723 11617 ft 299 kts 52°
2026-04-25 20:19 53.85625 10.36921 12193 ft 300 kts 52°
2026-04-25 20:19 53.86528 10.40097 12743 ft 303 kts 51°
2026-04-25 20:19 53.87456 10.43337 13350 ft 311 kts 51°
2026-04-25 20:20 53.88391 10.46618 14025 ft 316 kts 51°
2026-04-25 20:20 53.89347 10.50001 14747 ft 319 kts 52°
2026-04-25 20:20 53.90296 10.53365 15462 ft 322 kts 51°
2026-04-25 20:20 53.91271 10.56816 16165 ft 325 kts 51°
2026-04-25 20:21 53.92234 10.60231 16878 ft 326 kts 51°
2026-04-25 20:21 53.93201 10.63669 17626 ft 328 kts 50°
2026-04-25 20:21 53.94254 10.67092 18293 ft 319 kts 40°
2026-04-25 20:21 53.95635 10.69877 18831 ft 311 kts 31°
2026-04-25 20:22 53.97152 10.72479 19271 ft 321 kts 32°
2026-04-25 20:22 53.98217 10.74355 19590 ft 328 kts 33°
2026-04-25 20:22 54.00304 10.78147 20196 ft 340 kts 34°
2026-04-25 20:22 54.01933 10.81128 20659 ft 348 kts 34°
2026-04-25 20:23 54.03596 10.84187 21198 ft 353 kts 34°
2026-04-25 20:23 54.05246 10.87223 21742 ft 357 kts 34°
2026-04-25 20:23 54.06943 10.90349 22317 ft 360 kts 34°
2026-04-25 20:23 54.08641 10.93477 22910 ft 362 kts 34°
2026-04-25 20:24 54.10326 10.96585 23481 ft 363 kts 34°
2026-04-25 20:24 54.12035 10.99708 23835 ft 371 kts 34°
2026-04-25 20:24 54.13823 11.02977 24249 ft 378 kts 34°
2026-04-25 20:24 54.15590 11.06242 24720 ft 382 kts 35°
2026-04-25 20:25 54.17395 11.09587 25227 ft 385 kts 34°
2026-04-25 20:25 54.19242 11.13006 25758 ft 391 kts 34°
2026-04-25 20:25 54.21067 11.16395 26335 ft 394 kts 34°
2026-04-25 20:25 54.22919 11.19846 26936 ft 397 kts 34°
2026-04-25 20:26 54.24793 11.23332 27240 ft 406 kts 34°
2026-04-25 20:26 54.26730 11.26919 27303 ft 421 kts 35°
2026-04-25 20:26 54.28766 11.30708 27298 ft 436 kts 35°
2026-04-25 20:26 54.30815 11.34550 27275 ft 443 kts 36°
2026-04-25 20:27 54.32848 11.38402 27253 ft 434 kts 36°
2026-04-25 20:27 54.34840 11.42193 27249 ft 419 kts 36°
2026-04-25 20:27 54.36750 11.45810 27227 ft 406 kts 34°
2026-04-25 20:27 54.38638 11.49369 27209 ft 393 kts 34°
2026-04-25 20:28 54.40594 11.52296 27163 ft 356 kts 17°
2026-04-25 20:28 54.42729 11.53967 27238 ft 333 kts
2026-04-25 20:28 54.44922 11.55087 27252 ft 332 kts
2026-04-25 20:28 54.47211 11.55994 27285 ft 343 kts
2026-04-25 20:29 54.49594 11.56832 27297 ft 353 kts
2026-04-25 20:29 54.52044 11.57653 27296 ft 362 kts
2026-04-25 20:29 54.54509 11.58463 27290 ft 370 kts
2026-04-25 20:29 54.57041 11.59288 27284 ft 375 kts
2026-04-25 20:30 54.59612 11.60130 27500 ft 374 kts
2026-04-25 20:30 54.62147 11.60968 27940 ft 369 kts
2026-04-25 20:30 54.64648 11.61781 28352 ft 367 kts
2026-04-25 20:30 54.67144 11.62590 28753 ft 365 kts
2026-04-25 20:31 54.69621 11.63394 29125 ft 364 kts
2026-04-25 20:31 54.72089 11.64194 29467 ft 363 kts
2026-04-25 20:31 54.74555 11.64995 29787 ft 363 kts
2026-04-25 20:31 54.77003 11.65802 30082 ft 364 kts
2026-04-25 20:32 54.79493 11.66634 30368 ft 364 kts
2026-04-25 20:32 54.81953 11.67447 30648 ft 364 kts
2026-04-25 20:32 54.84436 11.68264 30891 ft 364 kts
2026-04-25 20:32 54.86946 11.69084 31024 ft 369 kts
2026-04-25 20:33 54.92037 11.70747 31132 ft 378 kts
2026-04-25 20:33 54.96397 11.72180 31137 ft 387 kts
2026-04-25 20:34 55.02595 11.74227 31154 ft 394 kts
2026-04-25 20:34 55.07909 11.76002 31150 ft 387 kts
2026-04-25 20:35 55.13186 11.77737 31073 ft 391 kts
2026-04-25 20:35 55.18460 11.79500 31082 ft 384 kts
2026-04-25 20:36 55.23685 11.81236 31098 ft 383 kts
2026-04-25 20:36 55.28900 11.82981 31106 ft 381 kts
2026-04-25 20:37 55.34036 11.84705 31094 ft 380 kts
2026-04-25 20:37 55.39223 11.86443 31109 ft 377 kts
2026-04-25 20:38 55.44379 11.88177 31102 ft 382 kts
2026-04-25 20:38 55.49544 11.89929 31106 ft 378 kts
2026-04-25 20:39 55.54660 11.91666 31089 ft 376 kts
2026-04-25 20:39 55.58919 11.93106 31089 ft 375 kts
2026-04-25 20:40 55.64908 11.95145 31096 ft 375 kts
2026-04-25 20:40 55.69962 11.96871 31082 ft 375 kts
2026-04-25 20:41 55.75046 11.98609 31083 ft 376 kts
2026-04-25 20:41 55.80126 12.00361 31086 ft 371 kts
2026-04-25 20:42 55.85209 12.02103 31083 ft 373 kts
2026-04-25 20:42 55.90297 12.03864 31077 ft 372 kts
2026-04-25 20:43 55.95397 12.05631 31071 ft 371 kts
2026-04-25 20:43 56.00431 12.07372 31023 ft 375 kts
2026-04-25 20:44 56.02935 12.08245 30907 ft 370 kts
2026-04-25 20:44 56.05439 12.09125 30770 ft 370 kts
2026-04-25 20:44 56.07944 12.09996 30594 ft 367 kts
2026-04-25 20:44 56.10428 12.10866 30346 ft 361 kts
2026-04-25 20:45 56.12851 12.11714 29967 ft 357 kts
2026-04-25 20:45 56.15256 12.12555 29588 ft 353 kts
2026-04-25 20:45 56.17675 12.13401 29205 ft 349 kts
2026-04-25 20:45 56.20021 12.14225 28844 ft 344 kts
2026-04-25 20:46 56.22354 12.15045 28477 ft 340 kts
2026-04-25 20:46 56.24646 12.15853 28159 ft 334 kts
2026-04-25 20:46 56.26904 12.16646 27848 ft 329 kts
2026-04-25 20:46 56.29104 12.17423 27544 ft 323 kts
2026-04-25 20:47 56.31310 12.18157 27226 ft 315 kts 358°
2026-04-25 20:47 56.33414 12.18026 26877 ft 302 kts 346°
2026-04-25 20:47 56.35462 12.17360 26548 ft 297 kts 346°
2026-04-25 20:47 56.37474 12.16743 26265 ft 292 kts 347°
2026-04-25 20:48 56.39481 12.16183 25988 ft 287 kts 348°
2026-04-25 20:48 56.41421 12.15645 25678 ft 283 kts 346°
2026-04-25 20:48 56.43337 12.15107 25350 ft 280 kts 348°
2026-04-25 20:48 56.45249 12.14577 25017 ft 278 kts 348°
2026-04-25 20:49 56.47158 12.14044 24681 ft 278 kts 348°
2026-04-25 20:49 56.49061 12.13512 24338 ft 277 kts 347°
2026-04-25 20:49 56.50954 12.12979 23989 ft 275 kts 347°
2026-04-25 20:49 56.52831 12.12455 23655 ft 275 kts 347°
2026-04-25 20:50 56.54706 12.11932 23317 ft 272 kts 346°
2026-04-25 20:50 56.56567 12.11411 22951 ft 274 kts 347°
2026-04-25 20:50 56.58448 12.10883 22600 ft 271 kts 348°
2026-04-25 20:50 56.60321 12.10360 22226 ft 277 kts 347°
2026-04-25 20:51 56.62244 12.09813 21935 ft 284 kts 347°
2026-04-25 20:51 56.64195 12.09266 21692 ft 285 kts 348°
2026-04-25 20:51 56.66169 12.08712 21351 ft 287 kts 348°
2026-04-25 20:51 56.68142 12.08153 20881 ft 293 kts 348°
2026-04-25 20:52 56.70180 12.07579 20390 ft 299 kts 348°
2026-04-25 20:52 56.71541 12.07195 20105 ft 301 kts 348°
2026-04-25 20:52 56.74314 12.06415 19573 ft 304 kts 348°
2026-04-25 20:52 56.76404 12.05824 19179 ft 306 kts 348°
2026-04-25 20:53 56.78494 12.05233 18817 ft 306 kts 347°
2026-04-25 20:53 56.80616 12.04633 18459 ft 308 kts 348°
2026-04-25 20:53 56.82715 12.04038 18079 ft 308 kts 348°
2026-04-25 20:53 56.84835 12.03440 17657 ft 309 kts 348°
2026-04-25 20:54 56.86959 12.02836 17272 ft 306 kts 348°
2026-04-25 20:54 56.89027 12.02250 16805 ft 302 kts 348°
2026-04-25 20:54 56.91101 12.01656 16103 ft 306 kts 348°
2026-04-25 20:54 56.93200 12.01052 15640 ft 305 kts 349°
2026-04-25 20:55 56.95289 12.00458 15273 ft 302 kts 349°
2026-04-25 20:55 56.97349 11.99870 14869 ft 301 kts 349°
2026-04-25 20:55 56.99420 11.99276 14439 ft 302 kts 349°
2026-04-25 20:55 57.01469 11.98687 14006 ft 302 kts 349°
2026-04-25 20:56 57.03538 11.98100 13578 ft 302 kts 350°
2026-04-25 20:56 57.05651 11.98066 13141 ft 306 kts
2026-04-25 20:56 57.07759 11.98687 12724 ft 306 kts
2026-04-25 20:56 57.09858 11.99302 12318 ft 305 kts
2026-04-25 20:57 57.11945 11.99831 11795 ft 308 kts
2026-04-25 20:57 57.14056 12.00353 11203 ft 308 kts
2026-04-25 20:57 57.16164 12.00884 10764 ft 298 kts
2026-04-25 20:57 57.18155 12.01385 10513 ft 284 kts
2026-04-25 20:58 57.20060 12.01860 10242 ft 273 kts
2026-04-25 20:58 57.21914 12.02321 9940 ft 264 kts
2026-04-25 20:58 57.23719 12.02769 9593 ft 257 kts
2026-04-25 20:58 57.25460 12.03201 9229 ft 252 kts
2026-04-25 20:59 57.27199 12.03633 8744 ft 252 kts
2026-04-25 20:59 57.28919 12.04062 8267 ft 253 kts
2026-04-25 20:59 57.30678 12.04501 8094 ft 252 kts
2026-04-25 20:59 57.32404 12.04934 7990 ft 250 kts
2026-04-25 21:00 57.34125 12.05366 7829 ft 251 kts
2026-04-25 21:00 57.34705 12.05512 7780 ft 251 kts
2026-04-25 21:00 57.39258 12.06657 7462 ft 248 kts
2026-04-25 21:01 57.40918 12.07076 7259 ft 239 kts
2026-04-25 21:01 57.42547 12.07486 6976 ft 232 kts
2026-04-25 21:01 57.44122 12.07903 6654 ft 227 kts 11°
2026-04-25 21:01 57.45604 12.08926 6275 ft 226 kts 26°
2026-04-25 21:02 57.46957 12.10339 5824 ft 220 kts 26°
2026-04-25 21:02 57.48235 12.11637 5044 ft 211 kts 26°
2026-04-25 21:02 57.49490 12.12869 4089 ft 204 kts 24°
2026-04-25 21:02 57.50743 12.13962 3259 ft 198 kts 22°
2026-04-25 21:03 57.51981 12.15010 2539 ft 190 kts 21°
2026-04-25 21:03 57.53109 12.15950 2356 ft 170 kts 21°
2026-04-25 21:03 57.54178 12.16815 1975 ft 167 kts 18°
2026-04-25 21:03 57.55232 12.17718 1643 ft 167 kts 25°
2026-04-25 21:04 57.56196 12.18817 1859 ft 151 kts 30°
2026-04-25 21:04 57.57077 12.19805 1914 ft 144 kts 25°
2026-04-25 21:04 57.57962 12.20646 1920 ft 142 kts 22°
2026-04-25 21:04 57.58822 12.21478 1843 ft 139 kts 22°
2026-04-25 21:05 57.59704 12.22273 1648 ft 141 kts 22°
2026-04-25 21:05 57.60549 12.23015 1408 ft 133 kts 21°
2026-04-25 21:05 57.61401 12.23731 1187 ft 139 kts 21°
2026-04-25 21:05 57.62260 12.24430 1063 ft 129 kts 20°
2026-04-25 21:06 57.63131 12.25169 905 ft 145 kts 22°
2026-04-25 21:06 57.64020 12.25948 750 ft 134 kts 21°
2026-04-25 21:06 57.64863 12.26702 561 ft 137 kts 23°
2026-04-25 21:06 57.65416 12.27202 505 ft 126 kts 24°
2026-04-25 21:07 57.66190 12.27902 517 ft 57 kts 26°
2026-04-25 21:07 57.66449 12.28136 518 ft 36 kts 29°
2026-04-25 21:07 57.66596 12.28309 518 ft 19 kts 40°
2026-04-25 21:07 57.66697 12.28524 517 ft 25 kts 56°
2026-04-25 21:08 57.66768 12.28725 514 ft 10 kts 52°
2026-04-25 21:08 57.66784 12.28760 514 ft 0 kts 49°
2026-04-25 21:08 57.66807 12.28800 514 ft 9 kts 35°
2026-04-25 21:09 57.67035 12.29007 515 ft 26 kts 25°
2026-04-25 21:09 57.67194 12.29153 517 ft 18 kts 27°
2026-04-25 21:09 57.67260 12.29237 517 ft 7 kts 75°
2026-04-25 21:10 57.67251 12.29333 517 ft 7 kts 122°
2026-04-25 21:10 57.67228 12.29405 518 ft 0 kts 122°
2026-04-25 21:10 57.67217 12.29444 519 ft 6 kts 114°
2026-04-25 21:10 57.67180 12.29520 521 ft 5 kts 192°
2026-04-25 21:11 57.67156 12.29446 519 ft 4 kts 259°
2026-04-25 21:11 57.67152 12.29417 519 ft 0 kts 252°